Location: Cussy
(47.0410°N, 4.6412°E)
Time: 06:29:47
(UTC+00:00)

MOS 1 Rocket - Pass Details

Date: 30 November 2020
Orbit: 614 x 830 km, 97.4° (Epoch: 18 January)

Event Time Altitude Azimuth Distance (km) Brightness Sun altitude
Exits shadow 18:03:18 38° 48° (NE) 1,242 4.1 -21.2°
Maximum altitude 18:04:58 52° 98° (E) 1,022 3.7 -21.5°
Drops below altitude 10° 18:10:12 10° 175° (S) 2,399 6.1 -22.4°
Sets 18:12:34 0° 180° (S) 3,306 6.9 -22.8°
